Weather History for Bentonville, AR

Change the Weather History Date:

Saturday, July 13, 2013

  Actual Average Record
Temperature  
Mean Temperature 76 °F -  
Max Temperature 89 °F 88 °F 112 °F (1954)
Min Temperature 64 °F 66 °F 52 °F (1975)
Cooling Degree Days 12    
Growing Degree Days 26 (Base 50)    
Moisture  
Dew Point 56 °F    
Average Humidity 49    
Maximum Humidity 73    
Minimum Humidity 33    
Precipitation  
Precipitation 0.00 in - - ()
Sea Level Pressure  
Sea Level Pressure 30.04 in    
Wind  
Wind Speed 6 mph (ESE)    
Max Wind Speed 10 mph    
Max Gust Speed -    
Visibility 10 miles    
Events      
Averages and records for this station are not official NWS values.
T = Trace of Precipitation, MM = Missing Value Source: NWS Daily Summary

Daily Weather History Graph

Daily Weather History Graph

Search for Another Location

Airport:

Trip Planner

Search our weather history database for the weather conditions in past years. The results will help you decide how hot, cold, wet, or windy it might be!

Date:

Astronomy

Jul. 13, 2013 Rise Set
Actual Time 6:09 AM CDT 8:35 PM CDT
Civil Twilight 5:39 AM CDT 9:05 PM CDT
Nautical Twilight 5:03 AM CDT 9:41 PM CDT
Astronomical Twilight 4:22 AM CDT 10:22 PM CDT
Moon 11:15 AM CDT (7/13) 11:27 PM CDT (7/13)
Length of Visible Light 15h 25m
Length of Day
14h 25m
Waxing Crescent, 26% of the Moon is Illuminated
Jul 13
Waxing Crescent
Jul 15
First Quarter
Jul 22
Full
Jul 29
Last Quarter
Aug 6
New

Hourly Weather History & Observations

Time (CDT) Temp. Heat Index Dew Point Humidity Pressure Visibility Wind Dir Wind Speed Gust Speed Precip Events Conditions
12:15 AM 73.4 °F - 59.0 °F 61% 30.03 in 10.0 mi SE 5.8 mph - N/A   Clear
12:35 AM 73.4 °F - 59.0 °F 61% 30.04 in 10.0 mi SE 4.6 mph - N/A   Clear
12:55 AM 71.6 °F - 59.0 °F 64% 30.04 in 10.0 mi SE 5.8 mph - N/A   Clear
1:15 AM 69.8 °F - 59.0 °F 68% 30.03 in 10.0 mi ESE 4.6 mph - N/A   Clear
1:35 AM 71.6 °F - 59.0 °F 64% 30.03 in 10.0 mi ESE 3.5 mph - N/A   Clear
1:55 AM 71.6 °F - 59.0 °F 64% 30.03 in 10.0 mi ESE 3.5 mph - N/A   Clear
2:16 AM 69.8 °F - 57.2 °F 64% 30.03 in 10.0 mi Calm Calm - N/A   Clear
2:35 AM 69.8 °F - 57.2 °F 64% 30.04 in 10.0 mi ESE 3.5 mph - N/A   Clear
2:55 AM 69.8 °F - 57.2 °F 64% 30.04 in 10.0 mi ESE 4.6 mph - N/A   Clear
3:15 AM 69.8 °F - 59.0 °F 68% 30.04 in 10.0 mi ESE 4.6 mph - N/A   Clear
3:35 AM 69.8 °F - 57.2 °F 64% 30.05 in 10.0 mi ESE 6.9 mph - N/A   Clear
3:55 AM 66.2 °F - 57.2 °F 73% 30.05 in 10.0 mi ESE 4.6 mph - N/A   Clear
4:15 AM 66.2 °F - 57.2 °F 73% 30.05 in 10.0 mi ESE 6.9 mph - N/A   Clear
4:36 AM 66.2 °F - 55.4 °F 68% 30.05 in 10.0 mi SE 9.2 mph - N/A   Clear
4:55 AM 66.2 °F - 55.4 °F 68% 30.05 in 10.0 mi SE 5.8 mph - N/A   Clear
5:15 AM 64.4 °F - 55.4 °F 73% 30.05 in 10.0 mi ESE 6.9 mph - N/A   Clear
5:35 AM 66.2 °F - 53.6 °F 64% 30.05 in 10.0 mi ESE 5.8 mph - N/A   Clear
6:15 AM 66.2 °F - 53.6 °F 64% 30.06 in 10.0 mi SE 5.8 mph - N/A   Clear
6:36 AM 66.2 °F - 53.6 °F 64% 30.06 in 10.0 mi SE 5.8 mph - N/A   Clear
6:55 AM 66.2 °F - 53.6 °F 64% 30.06 in 10.0 mi SE 8.1 mph - N/A   Clear
7:15 AM 68.0 °F - 55.4 °F 64% 30.06 in 10.0 mi SE 5.8 mph - N/A   Clear
7:35 AM 69.8 °F - 55.4 °F 60% 30.06 in 10.0 mi SE 5.8 mph - N/A   Clear
7:55 AM 71.6 °F - 55.4 °F 57% 30.07 in 10.0 mi SE 5.8 mph - N/A   Clear
8:15 AM 71.6 °F - 55.4 °F 57% 30.06 in 10.0 mi SSE 4.6 mph - N/A   Clear
8:35 AM 73.4 °F - 55.4 °F 53% 30.07 in 10.0 mi SSE 6.9 mph - N/A   Clear
8:56 AM 75.2 °F - 55.4 °F 50% 30.07 in 10.0 mi South 8.1 mph - N/A   Clear
9:15 AM 75.2 °F - 55.4 °F 50% 30.08 in 10.0 mi South 9.2 mph - N/A   Clear
9:35 AM 77.0 °F - 55.4 °F 47% 30.08 in 10.0 mi SSE 5.8 mph - N/A   Clear
9:56 AM 78.8 °F - 55.4 °F 44% 30.08 in 10.0 mi SSE 4.6 mph - N/A   Clear
10:15 AM 78.8 °F - 55.4 °F 44% 30.08 in 10.0 mi South 5.8 mph - N/A   Clear
10:35 AM 80.6 °F 80.5 °F 55.4 °F 42% 30.09 in 10.0 mi Calm Calm - N/A   Clear
10:56 AM 82.4 °F 82.0 °F 57.2 °F 42% 30.09 in 10.0 mi South 3.5 mph - N/A   Clear
11:15 AM 82.4 °F 82.0 °F 57.2 °F 42% 30.08 in 10.0 mi ESE 4.6 mph - N/A   Clear
11:35 AM 84.2 °F 83.5 °F 57.2 °F 40% 30.07 in 10.0 mi ESE 4.6 mph - N/A   Clear
11:55 AM 84.2 °F 83.0 °F 55.4 °F 37% 30.07 in 10.0 mi Calm Calm - N/A   Clear
12:35 PM 86.0 °F 84.9 °F 57.2 °F 37% 30.07 in 10.0 mi WNW 3.5 mph - N/A   Clear
12:55 PM 87.8 °F 86.1 °F 55.4 °F 33% 30.06 in 10.0 mi North 4.6 mph - N/A   Clear
1:15 PM 87.8 °F 86.1 °F 55.4 °F 33% 30.06 in 10.0 mi Calm Calm - N/A   Clear
1:35 PM 87.8 °F 86.5 °F 57.2 °F 35% 30.04 in 10.0 mi North 3.5 mph - N/A   Clear
1:55 PM 89.6 °F 88.9 °F 59.0 °F 36% 30.04 in 10.0 mi ESE 9.2 mph - N/A   Clear
2:15 PM 89.6 °F 89.5 °F 60.8 °F 38% 30.04 in 10.0 mi ESE 8.1 mph - N/A   Clear
2:35 PM 86.0 °F 85.4 °F 59.0 °F 40% 30.04 in 10.0 mi East 6.9 mph - N/A   Mostly Cloudy
2:55 PM 87.8 °F 87.1 °F 59.0 °F 38% 30.04 in 10.0 mi East 10.4 mph - N/A   Partly Cloudy
3:15 PM 87.8 °F 87.1 °F 59.0 °F 38% 30.03 in 10.0 mi ENE 4.6 mph - N/A   Partly Cloudy
3:35 PM 87.8 °F 87.1 °F 59.0 °F 38% 30.02 in 10.0 mi East 8.1 mph - N/A   Clear
3:55 PM 89.6 °F 88.9 °F 59.0 °F 36% 30.02 in 10.0 mi ENE 5.8 mph - N/A   Partly Cloudy
4:15 PM 87.8 °F 87.1 °F 59.0 °F 38% 30.01 in 10.0 mi East 9.2 mph - N/A   Clear
4:55 PM 87.8 °F 87.1 °F 59.0 °F 38% 30.01 in 10.0 mi ENE 4.6 mph - N/A   Partly Cloudy
5:15 PM 87.8 °F 86.5 °F 57.2 °F 35% 30.01 in 10.0 mi East 9.2 mph - N/A   Clear
5:55 PM 84.2 °F 83.0 °F 55.4 °F 37% 30.01 in 10.0 mi ENE 6.9 mph - N/A   Clear
6:15 PM 84.2 °F 83.0 °F 55.4 °F 37% 30.00 in 10.0 mi ENE 8.1 mph - N/A   Clear
6:35 PM 84.2 °F 82.8 °F 53.6 °F 35% 30.00 in 10.0 mi ENE 10.4 mph - N/A   Scattered Clouds
6:55 PM 84.2 °F 82.8 °F 53.6 °F 35% 30.00 in 10.0 mi ENE 9.2 mph - N/A   Partly Cloudy
7:15 PM 84.2 °F 82.8 °F 53.6 °F 35% 30.00 in 10.0 mi East 5.8 mph - N/A   Clear
7:36 PM 84.2 °F 83.0 °F 55.4 °F 37% 29.99 in 10.0 mi East 8.1 mph - N/A   Clear
7:55 PM 82.4 °F 81.4 °F 53.6 °F 37% 30.00 in 10.0 mi ESE 9.2 mph - N/A   Clear
8:15 PM 82.4 °F 81.4 °F 53.6 °F 37% 30.00 in 10.0 mi ESE 6.9 mph - N/A   Clear
8:35 PM 80.6 °F 80.3 °F 53.6 °F 39% 30.00 in 10.0 mi ESE 6.9 mph - N/A   Clear
8:55 PM 80.6 °F 80.3 °F 53.6 °F 39% 30.00 in 10.0 mi ESE 5.8 mph - N/A   Clear
9:15 PM 78.8 °F - 53.6 °F 42% 30.00 in 10.0 mi ESE 6.9 mph - N/A   Clear
9:35 PM 78.8 °F - 55.4 °F 44% 30.00 in 10.0 mi ESE 6.9 mph - N/A   Clear
9:56 PM 77.0 °F - 55.4 °F 47% 30.00 in 10.0 mi SSE 4.6 mph - N/A   Clear
10:15 PM 75.2 °F - 55.4 °F 50% 30.00 in 10.0 mi South 3.5 mph - N/A   Clear
10:35 PM 75.2 °F - 55.4 °F 50% 29.99 in 10.0 mi SSE 3.5 mph - N/A   Clear
10:56 PM 75.2 °F - 55.4 °F 50% 30.02 in 10.0 mi East 4.6 mph - N/A   Clear
11:15 PM 75.2 °F - 55.4 °F 50% 30.01 in 10.0 mi SSE 5.8 mph - N/A   Clear
11:35 PM 75.2 °F - 55.4 °F 50% 30.02 in 10.0 mi East 4.6 mph - N/A   Clear
11:55 PM 75.2 °F - 55.4 °F 50% 30.03 in 10.0 mi East 9.2 mph - N/A   Clear